Погода в Елеце

Погода в Елеце : погода сейчас, прогноз погоды и архив. Всё, что Вы хотите узнать о погоде в Елеце!

Хотите узнать прогноз погоды в Елеце? Тогда Вам сюда: Погода в Елеце

Поиск расширенной информации на нашем сайте:

Другие новости

Новости СМИ2

Главная страница сайта

Новости сайта

03.07.2017

Напоминаем, что на нашем специализированном сайте Метеоцентр.Азия вы можете получить высокодетализированные автоматические прогнозы погоды по пунктам России, СНГ и мира в авиационном формате (включающие направление и скорость ветра, видимость, явления погоды, количество и форму облачности, нижнюю и верхнюю границу облачности).


Погода в Елеце - сегодня

Время (UTC), дата Ветер
(°,м/с) 
Видим.   Явления Облачность Т
(°С)
Тd
(°С)
f(%) Тe
(°С)
Pmin
(гПа)
dP
(гПа)
Po
(мм)
O2
(г/м3)
Тmin Tmax R s Состояние
почвы
15 21.06.18 300 (СЗ) 10 км    ясно 
+27 +8.5 31 +27  1012.6  -0.4  745  272    +27.5       
18 21.06.18 300 (СЗ) 10 км    ясно 
+23.2 +12.1 50 +27  1012.8  745  274           
21 21.06.18 тихо ()   10 км    ясно 
+16.6 +12.1 75 +21  1013.3  745  281           
00 22.06.18 тихо ()   4000 м  дымка  ясно 
+13.4 +11.8 90 +17  1013.8  0.3  745  284           
06 22.06.18 180 (Ю) 10 км    4/0 верхняя 
[Ci fib]
+25.5 +11.9 43 +29  1012.8  -0.2  745  272           
09 22.06.18 190 (Ю) 10 км    8/8 1000 м 
[Cu med, cong]
+28.8 +11 33 +31  1012.1  -0.5  745  270           
12 22.06.18 210 (ЮЗ) 10 км    4/4 1000 м 
[Cu med, cong]
+30.3 +12.1 33 +35  1010.9  -1.1  744  268           
18 22.06.18 160 (Ю) 10 км    3/0 средняя, верхняя 
[Ac cuf|Ci fib]
+25 +15.4 55 +35  1009.7  0.1  743  271           
21 22.06.18 тихо ()   10 км    3/0 верхняя 
[Ci fib]
+20.1 +14.2 69 +28  1010.3  0.1  743  276           
00 23.06.18 тихо ()   10 км    1/0 верхняя 
[Ci fib]
+17.9 +13.1 73 +24  1010.8  0.3  743  279           
06 23.06.18 180 (Ю) 10 км    4/0 верхняя 
[Ci fib]
+26.3 +6.4 28 +26  1010.2  -0.1  743  272           
09 23.06.18 160 (Ю) 10 км    3/0 верхняя 
[Ci fib]
+31.1 +7.8 23 +31  1009.3  -0.7  743  267           
12 23.06.18 180 (Ю) 3{10}  10 км    ясно 
+32.7 +6.7 20 +33  1008.2  -1  742  266           
18 23.06.18 130 (ЮВ) 10 км    9/0 верхняя 
[Ci sp]
+26.3 +12.1 41 +31  1007.4  -0.1  741  270           
21 23.06.18 120 (ЮВ) 10 км    6/0 верхняя 
[Ci fib]
+23.7 +12.3 49 +28  1007.2  -0.4  741  272           
00 24.06.18 140 (ЮВ) 10 км    8/0 верхняя 
[Ci fib]
+22.1 +10.6 48 +24  1006.3  -1  740  274           
06 24.06.18 150 (ЮВ) 10 км    9/0 средняя, верхняя 
[Ac trans|Ci fib]
+24.5 +12.7 48 +30  1006.6  -0.1  741  271           
09 24.06.18 170 (Ю) 10 км    9/3 1000 м средняя, верхняя 
[Cu med, cong|Ac trans|Ci fib]
+26.5 +11 38 +29  1006.7  0.3  741  270           
12 24.06.18 280 (З) 10 км    9/5 1000 м средняя 
[Cu med, cong|Ac und]
+25.1 +16.5 59 +37  1007.4  0.7  741  270           
15 24.06.18 290 (З) 3{10}  4000 м  слаб. ливневой дождь  10/8 600 м кучево-дожд., средняя 
[Cb calv|Ac und]
+15.5 +13.9 90 +23  1011.5  3.3  744  281    +28.1     
18 24.06.18 290 (З) 10 км  {ливн. осадки}  9/9 600 м средняя 
[Sc|Ac trans]
+14.6 +12.2 86 +19  1012.8  1.1  745  282           
21 24.06.18 260 (З) 4000 м  дымка  9/9 600 м средняя 
[Sc|Ac trans]
+14.4 +12.4 88 +20  1014.6  1.8  746  283           
06 25.06.18 300 (СЗ) 10 км    5/5 600 м 
[Cu hum]
+16.6 +9 61 +17  1018.4  1.2  749  283           
09 25.06.18 320 (СЗ) 10 км    8/4 600 м средняя, верхняя 
[Cu hum|Ac trans|Ci sp]
+20.2 +8.4 47 +20  1018.7  0.5  749  280           
12 25.06.18 340 (С) 10 км    8/3 1000 м средняя, верхняя 
[Cu hum|Ac trans|Ci sp]
+21.9 +9.4 45 +22  1018.9  0.4  750  278           
Время (UTC), дата Ветер
(°,м/с) 
Видим.   Явления Облачность Т
(°С)
Тd
(°С)
f(%) Тe
(°С)
Pmin
(гПа)
dP
(гПа)
Po
(мм)
O2
(г/м3)
Тmin Tmax R s Состояние
почвы

Для получения пояснительной информации подведите курсор к названию столбца.

ПОГОДА в Елеце - архив

Всё, что Вы хотите узнать о погоде в Елеце - удобно и подробно!

Выберите нужную дату (начиная с 1 января 2015* года) и нажмите кнопку "Найти".
Будут отображены архивные сводки погоды по пункту Елец, начиная с указанной даты.


Отображать данные в формате CSV (для использования в таблицах Excel)


Внимание! Наш архив погоды предназначен исключительно для личного некоммерческого использования в познавательных целях. Если Вам необходимы официальные справки о состоянии погоды (для производственных, юридических, коммерческих и т.п. целей), обращайтесь в органы Росгидромета.

*Примечание: данная дата относится к архиву по метеостанциям СССР (Россия, СНГ, Балтия).
Архив по метеостанциям Зарубежной Европы и Азии (кроме Китая) хранится 10 дней, по другим регионам земного шара (Китай, Африка, Америка, Австралия, Океания) - 1 день.

Елец - район местоположения метеостанции


Название, широта, долгота, высота метеостанции:
Елец 52.6°ш. 38.5°д. 168 м над ур. моря [Российская Федерация]

Дополнительная информация

В oтличие oт бoльшинства пoгoдных сайтoв мы публикуем пoдрoбную метеoинфoрмацию в детальнoм прoфессиoнальнoм фoрмате.

Характеристики температуры и влажнoсти вoздуха измеряются на высoте 2 м в тени вдали oт зданий и деревьев.
Скoрoсть ветра измеряется на высoте 10 м (на урoвне рoста челoвека скoрoсть ветра ниже в 1.5-2 раза). Если метеoстанция нахoдится в гoрoде или в лесу, тo скoрoсть ветра занижена на 2-4 м/с пo сравнению с oткрытым местoм. Скoрoсть ветра над акватoриями крупных рек и oзёр, а также на вершинах хoлмoв на 2-5 м/с выше, чем в oбычных услoвиях.
Атмoсфернoе давление в разных тoчках местнoсти мoжет значительнo oтличаться oт давления на метеoстанции, в зависимoсти oт услoвий рельефа (при пoдъёме на 10 м давление пoнижается примернo на 1 мм рт.ст.).